When you browse on this site, cookies collect data to enhance your experience and personalize the content and advertising you see.
Visit our Privacy Policy to learn more. By continuing to use the site, you agree to this use of cookies and data.
  • In Austria
  • List of Countries
  • For 7 days
  • Water Temperature
  • Weather Map
  • News
  • Weather Widgets
  • user-avatar
    Login

    Hourly Weather Dyatly

    Today, 15 September, Sunday

    Time Temperature Precipitation Wind Pressure Humidity
    00:00 +9°C° 0 mm 3 mps 757 mmHg 87%
    01:00 +9°C° 0 mm 2 mps 757 mmHg 89%
    02:00 +8°C° 0 mm 2 mps 757 mmHg 91%
    03:00 +8°C° 0 mm 2 mps 757 mmHg 91%
    04:00 +8°C° 0 mm 2 mps 757 mmHg 92%
    05:00 +8°C° 0 mm 2 mps 757 mmHg 92%
    06:00 +9°C° 0 mm 2 mps 757 mmHg 86%
    07:00 +10°C° 0 mm 3 mps 756 mmHg 81%
    08:00 +11°C° 0 mm 3 mps 756 mmHg 75%
    09:00 +13°C° 0 mm 4 mps 756 mmHg 69%
    10:00 +14°C° 0 mm 5 mps 755 mmHg 63%
    11:00 +16°C° 0 mm 5 mps 755 mmHg 57%
    12:00 +16°C° 0 mm 6 mps 754 mmHg 55%
    13:00 +17°C° 0 mm 6 mps 753 mmHg 54%
    14:00 +17°C° 0 mm 6 mps 753 mmHg 52%
    15:00 +17°C° 0 mm 6 mps 752 mmHg 53%
    16:00 +16°C° 0 mm 5 mps 751 mmHg 54%
    17:00 +16°C° 0 mm 5 mps 750 mmHg 55%
    18:00 +15°C° 0 mm 5 mps 750 mmHg 56%
    19:00 +15°C° 0 mm 5 mps 749 mmHg 56%
    20:00 +14°C° 0 mm 5 mps 749 mmHg 57%
    21:00 +14°C° 0 mm 5 mps 748 mmHg 58%
    22:00 +14°C° 0 mm 5 mps 748 mmHg 58%
    23:00 +14°C° 0 mm 5 mps 747 mmHg 59%

    Tomorrow, 16 September, Monday

    Time Temperature Precipitation Wind Pressure Humidity
    00:00 +14°C° 0 mm 5 mps 747 mmHg 61%
    01:00 +14°C° 0 mm 5 mps 746 mmHg 62%
    02:00 +14°C° 0 mm 5 mps 746 mmHg 64%
    03:00 +15°C° 0 mm 5 mps 746 mmHg 63%
    04:00 +15°C° 0 mm 5 mps 746 mmHg 62%
    05:00 +15°C° 0 mm 5 mps 746 mmHg 61%
    06:00 +15°C° 0 mm 6 mps 746 mmHg 61%
    07:00 +15°C° 0 mm 6 mps 746 mmHg 61%
    08:00 +15°C° 0 mm 6 mps 746 mmHg 61%
    09:00 +16°C° 0 mm 7 mps 746 mmHg 58%
    10:00 +16°C° 0 mm 7 mps 746 mmHg 55%
    11:00 +17°C° 0 mm 8 mps 746 mmHg 51%
    12:00 +17°C° 0 mm 7 mps 746 mmHg 51%
    13:00 +17°C° 0 mm 7 mps 746 mmHg 50%
    14:00 +17°C° 0 mm 7 mps 746 mmHg 49%
    15:00 +16°C° 0 mm 7 mps 746 mmHg 52%
    16:00 +15°C° 0 mm 6 mps 745 mmHg 55%
    17:00 +14°C° 0 mm 6 mps 745 mmHg 58%
    18:00 +13°C° 0 mm 5 mps 745 mmHg 62%
    19:00 +12°C° 0 mm 5 mps 745 mmHg 66%
    20:00 +10°C° 0 mm 4 mps 745 mmHg 69%
    21:00 +10°C° 0 mm 4 mps 745 mmHg 70%
    22:00 +10°C° 0 mm 4 mps 745 mmHg 71%
    23:00 +8°C° 0 mm 4 mps 745 mmHg 73%

    Day after tomorrow, 17 September, Tuesday

    Time Temperature Precipitation Wind Pressure Humidity
    00:00 +8°C° 0 mm 4 mps 745 mmHg 76%
    01:00 +7°C° 0 mm 4 mps 745 mmHg 78%
    02:00 +7°C° 0 mm 3 mps 744 mmHg 81%
    03:00 +7°C° 0 mm 3 mps 744 mmHg 84%
    04:00 +7°C° 0 mm 3 mps 744 mmHg 86%
    05:00 +5°C° 0 mm 3 mps 744 mmHg 89%
    06:00 +6°C° 0 mm 4 mps 744 mmHg 84%
    07:00 +7°C° 0 mm 5 mps 743 mmHg 78%
    08:00 +8°C° 0 mm 5 mps 743 mmHg 73%
    09:00 +10°C° 0 mm 6 mps 743 mmHg 67%
    10:00 +11°C° 0 mm 6 mps 743 mmHg 61%
    11:00 +14°C° 0 mm 7 mps 743 mmHg 55%
    12:00 +14°C° 0.1 mm 7 mps 743 mmHg 54%
    13:00 +14°C° 0.1 mm 7 mps 742 mmHg 53%
    14:00 +15°C° 0.1 mm 7 mps 742 mmHg 52%
    15:00 +14°C° 0.1 mm 6 mps 742 mmHg 55%
    16:00 +14°C° 0.1 mm 6 mps 741 mmHg 58%
    17:00 +13°C° 0.1 mm 5 mps 741 mmHg 62%
    18:00 +12°C° 0.2 mm 5 mps 741 mmHg 67%
    19:00 +10°C° 0.2 mm 5 mps 741 mmHg 73%
    20:00 +8°C° 0.2 mm 4 mps 741 mmHg 78%
    21:00 +8°C° 0.4 mm 4 mps 741 mmHg 82%
    22:00 +7°C° 0.4 mm 5 mps 740 mmHg 85%
    23:00 +6°C° 0.4 mm 5 mps 740 mmHg 88%

    18 September, Wednesday

    Time Temperature Precipitation Wind Pressure Humidity
    00:00 +6°C° 0 mm 5 mps 740 mmHg 88%
    01:00 +6°C° 0 mm 5 mps 740 mmHg 88%
    02:00 +4°C° 0 mm 6 mps 740 mmHg 88%
    03:00 +4°C° 0 mm 6 mps 740 mmHg 88%
    04:00 +4°C° 0 mm 6 mps 740 mmHg 87%
    05:00 +4°C° 0 mm 7 mps 740 mmHg 87%
    06:00 +4°C° 0 mm 7 mps 741 mmHg 85%
    07:00 +5°C° 0 mm 7 mps 741 mmHg 83%
    08:00 +5°C° 0 mm 7 mps 741 mmHg 82%
    09:00 +6°C° 0 mm 7 mps 742 mmHg 78%
    10:00 +6°C° 0 mm 7 mps 742 mmHg 74%
    11:00 +8°C° 0 mm 6 mps 743 mmHg 70%
    12:00 +9°C° 0.1 mm 6 mps 743 mmHg 67%
    13:00 +10°C° 0.1 mm 7 mps 744 mmHg 63%
    14:00 +12°C° 0.1 mm 7 mps 744 mmHg 60%
    15:00 +11°C° 0.3 mm 7 mps 744 mmHg 67%
    16:00 +10°C° 0.3 mm 7 mps 744 mmHg 74%
    17:00 +9°C° 0.3 mm 7 mps 745 mmHg 81%
    18:00 +8°C° 0 mm 6 mps 745 mmHg 83%
    19:00 +8°C° 0 mm 5 mps 746 mmHg 85%
    20:00 +7°C° 0 mm 5 mps 746 mmHg 87%
    21:00 +7°C° 0 mm 5 mps 746 mmHg 90%
    22:00 +7°C° 0 mm 4 mps 747 mmHg 92%
    23:00 +6°C° 0 mm 4 mps 747 mmHg 94%

    19 September, Thursday

    Time Temperature Precipitation Wind Pressure Humidity
    00:00 +6°C° 0 mm 4 mps 748 mmHg 95%
    01:00 +6°C° 0 mm 4 mps 748 mmHg 96%
    02:00 +5°C° 0 mm 4 mps 748 mmHg 96%
    03:00 +5°C° 0 mm 4 mps 748 mmHg 96%
    04:00 +5°C° 0 mm 4 mps 749 mmHg 96%
    05:00 +5°C° 0 mm 4 mps 749 mmHg 97%
    06:00 +5°C° 0 mm 4 mps 749 mmHg 93%
    07:00 +6°C° 0 mm 4 mps 749 mmHg 90%
    08:00 +6°C° 0 mm 4 mps 750 mmHg 87%
    09:00 +7°C° 0 mm 4 mps 750 mmHg 79%
    10:00 +10°C° 0 mm 4 mps 750 mmHg 71%
    11:00 +11°C° 0 mm 4 mps 751 mmHg 63%
    12:00 +11°C° 0.4 mm 4 mps 750 mmHg 64%
    13:00 +12°C° 0.4 mm 4 mps 750 mmHg 65%
    14:00 +12°C° 0.4 mm 4 mps 750 mmHg 65%
    15:00 +12°C° 0.4 mm 4 mps 750 mmHg 67%
    16:00 +12°C° 0.4 mm 4 mps 750 mmHg 68%
    17:00 +11°C° 0.4 mm 3 mps 750 mmHg 69%
    18:00 +10°C° 0.1 mm 3 mps 750 mmHg 74%
    19:00 +8°C° 0.1 mm 3 mps 750 mmHg 80%
    20:00 +7°C° 0.1 mm 3 mps 750 mmHg 85%
    21:00 +5°C° 0 mm 3 mps 750 mmHg 86%
    22:00 +5°C° 0 mm 3 mps 750 mmHg 87%
    23:00 +4°C° 0 mm 3 mps 750 mmHg 89%

    20 September, Friday

    Time Temperature Precipitation Wind Pressure Humidity
    00:00 +4°C° 0 mm 3 mps 750 mmHg 90%
    01:00 +3°C° 0 mm 3 mps 750 mmHg 91%
    02:00 +2°C° 0 mm 3 mps 750 mmHg 92%
    03:00 +3°C° 0.1 mm 3 mps 750 mmHg 92%
    04:00 +4°C° 0.1 mm 3 mps 750 mmHg 91%
    05:00 +4°C° 0.1 mm 3 mps 750 mmHg 90%
    06:00 +5°C° 0.2 mm 3 mps 751 mmHg 90%
    07:00 +5°C° 0.2 mm 4 mps 751 mmHg 89%
    08:00 +5°C° 0.2 mm 4 mps 751 mmHg 89%
    09:00 +5°C° 0.1 mm 5 mps 752 mmHg 87%
    10:00 +6°C° 0.1 mm 5 mps 752 mmHg 85%
    11:00 +6°C° 0.1 mm 5 mps 753 mmHg 83%
    12:00 +7°C° 0.1 mm 5 mps 753 mmHg 75%
    13:00 +8°C° 0.1 mm 5 mps 753 mmHg 67%
    14:00 +9°C° 0.1 mm 5 mps 754 mmHg 59%
    15:00 +9°C° 0.3 mm 5 mps 754 mmHg 61%
    16:00 +8°C° 0.3 mm 4 mps 754 mmHg 64%
    17:00 +9°C° 0.3 mm 3 mps 754 mmHg 67%
    18:00 +8°C° 0 mm 3 mps 755 mmHg 70%
    19:00 +6°C° 0 mm 2 mps 755 mmHg 72%
    20:00 +4°C° 0 mm 2 mps 756 mmHg 75%
    21:00 +4°C° 0 mm 2 mps 756 mmHg 76%
    22:00 +4°C° 0 mm 2 mps 756 mmHg 78%
    23:00 +3°C° 0 mm 2 mps 756 mmHg 79%
    Show more